Date String (YYYY-MM-DD hh:mm:ss) UTC,Instrument flags,Ambient pressure (hPa),Sample flow (lpm),Bypass flow (lpm),Sample temperature (°C),Ambient temperature (°C),ASC tube jacket temperature (°C),LED temperature (°C),Box temperature (°C),Sample RH (%),Span deviation,Mass concentration (μg/m³),Mass concentration (μg/m³),Mass concentration (μg/m³)
DateTimeUTC,F1_M11,P_M11,Q1_M11,Q2_M11,T1_M11,T2_M11,T3_M11,T4_M11,T5_M11,U1_M11,ZSPAN_M11,X0_M11,X2_M11,X1_M11
2022-01-21 22:00:00,,0829.5,5.00,0.00,21.3,20.6,00.0,30.4,22.8,20.4,-003.0,0012.12,0008.36,0008.01
2022-01-21 22:01:00,,0829.5,4.99,0.00,21.3,20.6,00.0,30.4,22.8,20.5,-002.9,0012.19,0008.38,0008.00
2022-01-21 22:02:00,,0829.5,5.00,0.00,21.3,20.6,00.0,30.4,22.8,20.5,-002.8,0012.28,0008.41,0007.99
2022-01-21 22:03:00,,0829.5,5.01,0.00,21.2,20.6,00.0,30.4,22.9,20.5,-002.8,0012.33,0008.42,0007.97
2022-01-21 22:04:00,,0829.5,4.99,0.00,21.2,20.6,00.0,30.4,22.8,20.6,-002.8,0012.33,0008.42,0007.97
2022-01-21 22:05:00,,0829.5,5.01,0.00,21.2,20.6,00.0,30.4,22.8,20.6,-002.9,0012.34,0008.44,0007.96
2022-01-21 22:06:00,,0829.5,4.99,0.00,21.2,20.6,00.0,30.3,22.8,20.7,-003.0,0012.37,0008.47,0007.99
2022-01-21 22:07:00,,0829.5,5.00,0.00,21.2,20.6,00.0,30.3,22.8,20.7,-002.7,0012.26,0008.46,0008.01
2022-01-21 22:08:00,,0829.6,5.02,0.00,21.2,20.5,00.0,30.3,22.8,20.7,-002.6,0012.20,0008.47,0008.02
2022-01-21 22:09:00,,0829.6,4.99,0.00,21.2,21.0,00.0,30.3,22.9,20.7,-002.7,0012.28,0008.50,0008.03
2022-01-21 22:10:00,,0829.6,5.00,0.00,21.4,22.0,00.0,30.4,23.3,20.6,-002.6,0012.23,0008.50,0008.05
2022-01-21 22:11:00,,0829.6,5.00,0.00,21.6,22.9,00.0,30.4,23.6,20.4,-002.3,0012.15,0008.49,0008.06
2022-01-21 22:12:00,,0829.6,4.99,0.00,21.7,22.8,00.0,30.5,23.7,20.2,-002.3,0012.04,0008.45,0008.07
2022-01-21 22:13:00,,0829.6,5.00,0.00,21.7,22.5,00.0,30.5,23.7,20.2,-002.2,0011.89,0008.41,0008.07
2022-01-21 22:14:00,,0829.6,4.99,0.00,21.7,22.3,00.0,30.5,23.6,20.2,-002.1,0011.86,0008.44,0008.11
2022-01-21 22:15:00,,0829.6,5.01,0.00,21.7,22.0,00.0,30.5,23.5,20.3,-001.9,0011.86,0008.45,0008.13
2022-01-21 22:16:00,,0829.6,4.99,0.00,21.7,21.8,00.0,30.6,23.5,20.3,-002.0,0011.77,0008.39,0008.10
2022-01-21 22:17:00,,0829.6,5.01,0.00,21.7,21.6,00.0,30.6,23.4,20.3,-001.7,0011.67,0008.31,0008.03
2022-01-21 22:18:00,,0829.6,5.01,0.00,21.7,21.5,00.0,30.6,23.4,20.3,-001.9,0011.56,0008.22,0007.96
2022-01-21 22:19:00,,0829.7,4.99,0.00,21.6,21.3,00.0,30.6,23.3,20.3,-001.8,0011.52,0008.17,0007.92
2022-01-21 22:20:00,,0829.7,5.02,0.00,21.6,21.2,00.0,30.6,23.2,20.4,-001.9,0011.44,0008.12,0007.88
2022-01-21 22:21:00,,0829.7,4.99,0.00,21.6,21.1,00.0,30.6,23.2,20.4,-001.9,0011.39,0008.07,0007.84
2022-01-21 22:22:00,,0829.8,5.02,0.00,21.5,21.0,00.0,30.6,23.2,20.4,-002.2,0011.37,0008.05,0007.81
2022-01-21 22:23:00,,0829.8,4.99,0.00,21.5,21.0,00.0,30.6,23.2,20.4,-001.9,0011.36,0008.02,0007.78
2022-01-21 22:24:00,,0829.8,5.01,0.00,21.5,21.0,00.0,30.6,23.2,20.4,-001.9,0011.35,0008.00,0007.74
2022-01-21 22:25:00,,0829.8,5.00,0.00,21.5,21.0,00.0,30.6,23.2,20.5,-001.9,0011.34,0007.96,0007.70
2022-01-21 22:26:00,,0829.8,4.99,0.00,21.5,21.0,00.0,30.6,23.2,20.5,-001.9,0011.28,0007.92,0007.67
2022-01-21 22:27:00,,0829.8,5.01,0.00,21.5,21.0,00.0,30.5,23.2,20.5,-001.7,0011.26,0007.94,0007.68
2022-01-21 22:28:00,,0829.8,4.98,0.00,21.5,21.0,00.0,30.5,23.2,20.5,-001.9,0011.36,0007.99,0007.72
2022-01-21 22:29:00,,0829.8,5.01,0.00,21.5,20.9,00.0,30.5,23.1,20.6,-001.8,0011.42,0008.03,0007.76
2022-01-21 22:30:00,,0829.8,5.00,0.00,21.5,20.9,00.0,30.5,23.1,20.6,-001.9,0011.37,0008.01,0007.74
2022-01-21 22:31:00,,0829.8,4.99,0.00,21.4,20.9,00.0,30.5,23.1,20.6,-001.8,0011.34,0007.97,0007.71
2022-01-21 22:32:00,,0829.8,5.02,0.00,21.4,20.8,00.0,30.5,23.1,20.7,-001.5,0011.27,0007.93,0007.66
2022-01-21 22:33:00,,0829.8,4.99,0.00,21.4,20.8,00.0,30.5,23.1,20.7,-001.5,0011.20,0007.87,0007.59
2022-01-21 22:34:00,,0829.9,5.00,0.00,21.4,20.8,00.0,30.5,23.1,20.8,-001.6,0011.07,0007.78,0007.52
2022-01-21 22:35:00,,0829.9,5.00,0.00,21.4,20.8,00.0,30.5,23.1,20.8,-001.6,0010.96,0007.70,0007.45
2022-01-21 22:36:00,,0830.0,5.00,0.00,21.4,20.9,00.0,30.5,23.1,20.8,-001.7,0010.85,0007.61,0007.36
2022-01-21 22:37:00,,0830.0,5.01,0.00,21.4,20.9,00.0,30.5,23.1,20.8,-001.8,0010.71,0007.48,0007.22
2022-01-21 22:38:00,,0829.9,4.99,0.00,21.4,20.9,00.0,30.5,23.1,20.8,-001.9,0010.57,0007.35,0007.10
2022-01-21 22:39:00,,0830.0,5.00,0.00,21.4,20.9,00.0,30.5,23.1,20.9,-001.9,0010.42,0007.26,0007.02
2022-01-21 22:40:00,,0830.0,5.02,0.00,21.4,20.9,00.0,30.5,23.2,20.9,-002.2,0010.35,0007.20,0006.95
2022-01-21 22:41:00,,0830.0,4.99,0.00,21.4,20.9,00.0,30.5,23.2,20.9,-002.1,0010.31,0007.15,0006.90
2022-01-21 22:42:00,,0829.9,5.00,0.00,21.4,21.0,00.0,30.5,23.2,20.9,-002.1,0010.36,0007.15,0006.87
2022-01-21 22:43:00,,0830.0,5.01,0.00,21.5,21.0,00.0,30.5,23.2,20.9,-002.2,0010.36,0007.14,0006.86
2022-01-21 22:44:00,,0830.0,4.99,0.00,21.5,21.0,00.0,30.5,23.2,20.9,-002.3,0010.36,0007.13,0006.85
2022-01-21 22:45:00,,0830.0,5.02,0.00,21.5,21.0,00.0,30.5,23.2,20.8,-002.3,0010.39,0007.13,0006.84
2022-01-21 22:46:00,,0830.0,4.99,0.00,21.5,21.0,00.0,30.5,23.2,20.9,-002.2,0010.46,0007.15,0006.84
2022-01-21 22:47:00,,0830.1,4.99,0.00,21.5,21.0,00.0,30.5,23.3,20.8,-002.2,0010.50,0007.15,0006.83
2022-01-21 22:48:00,,0830.1,5.00,0.00,21.6,21.4,00.0,30.5,23.4,20.8,-002.1,0010.55,0007.21,0006.89
2022-01-21 22:49:00,,0830.1,5.00,0.00,21.7,22.3,00.0,30.5,23.6,20.6,-002.2,0010.63,0007.26,0006.94
2022-01-21 22:50:00,,0830.0,4.99,0.00,21.9,23.0,00.0,30.6,23.9,20.4,-002.1,0010.69,0007.29,0006.97
2022-01-21 22:51:00,,0830.1,5.00,0.00,22.0,23.0,00.0,30.7,24.0,20.3,-002.0,0010.74,0007.32,0006.98
2022-01-21 22:52:00,,0830.0,5.00,0.00,22.0,22.7,00.0,30.7,24.0,20.2,-002.1,0010.85,0007.39,0007.03
2022-01-21 22:53:00,,0830.0,5.00,0.00,22.0,22.5,00.0,30.7,24.0,20.2,-002.1,0010.89,0007.45,0007.11
2022-01-21 22:54:00,,0830.1,5.00,0.00,22.0,22.3,00.0,30.8,23.9,20.2,-002.2,0010.91,0007.49,0007.16
2022-01-21 22:55:00,,0830.1,5.01,0.00,22.0,22.1,00.0,30.8,23.9,20.2,-002.2,0010.89,0007.48,0007.17
2022-01-21 22:56:00,,0830.1,4.99,0.00,22.0,22.0,00.0,30.8,23.9,20.2,-002.2,0010.92,0007.52,0007.21
2022-01-21 22:57:00,,0830.1,4.99,0.00,22.0,21.9,00.0,30.8,23.8,20.2,-002.3,0010.93,0007.56,0007.26
2022-01-21 22:58:00,,0830.1,5.02,0.00,22.0,21.8,00.0,30.8,23.8,20.2,-002.3,0010.87,0007.56,0007.26
2022-01-21 22:59:00,,0830.1,5.00,0.00,22.0,21.7,00.0,30.8,23.8,20.2,-002.5,0010.85,0007.54,0007.25
